SCP
0 0 0 0 0 0 0 0 0 0 0 0 0 0 0 0 0 0 0 0 0 0 0 0 0 0 0 0 0 0 0 0 0 0 0 0 0 0 0 0 0 0 0 0 -0
0 0 0 0 0 0 0 0 0 0 0 0 0 0 0 0 0 0 0 0 0 0 0 0 0 0 0 0 0 0 0 0 0 0 0 0 0 0 0 0 0 0 0 0 0
0 0 0 0 0 0 0 0 0 0 0 0 0 0 0 0 0 0 0 0 0 0 0 0 0 0 0 0 0 0 0 0 0 0 0 0 0 0 0 0 0 0 0 0 0
0 0 0 0 0 0 0 0 0 0 0 0 0 0 0 0 0 0 0 0 0 0 0 0 0 0 0 0 0 0 0 0 0 0 0 0 0 0 0 0 0 0 0 0 0
0 0 0 0 0 0 0 0 0 0 0 0 0 0 0 0 0 0 0 0 0 0 0 0 0 0 0 0 0 0 0 0 0 0 0 0 0 0 0 0 0 0 0 0 0
0 0 0 0 0 0 0 0 0 0 0 0 0 0 0 0 0 0 0 0 0 0 0 0 0 0 0 0 0 0 0 0 0 0 0 0 0 0 0 0 0 0 0 0 0
0 0 0 0 0 0 0 0 0 0 0 0 0 0 0 0 0 0 0 0 0 0 0 0 0 0 0 0 0 0 0 0 0 0 0 0 0 0 0 0 0 0 0 0 0
0 0 0 0 0 0 0 0 0 0 0 0 0 0 0 0 0 0 0 0 0 0 0 0 0 0 0 0 0 0 0 0 0 0 0 0 0 0 0 0 0 0 0 0 0
0 0 0 0 0 0 0 0 0 0 0 0 0 0 0 0 0 0 0 0 0 0 0 0 0 0 0 0 0 0 0 0 0 0 0 0 0 0 0 0 0 0 0 0 0
0 0 0 0 0 0 0 0 0 0 0 0 0 -0 0 0 0 0 0 0 0 0 0 0 0 0 0 0 0 0 0 0 0 0 0 0 0 0 0 0 0 0 0 0 0
0 0 0 0 0 0 0 0 0 0 0 0 -0 0 0 0 0 0 0 0 0 0 0 0 0 0 0 0 0 0 0 0 0 0 0 0 0 0 0 0 0 0 0 0 0
0 0 0 0 0 0 0 0 0 0 0 0 0 0 0 0 0 0 0 0 0 0 0 0 0 0 0 0 0 0 0 0 0 0 0 0 0 0 0 0 0 0 0 0 0
0 0 0 0 0 0 0 0 0 0 0 0 -0 0 0 0 0 0 0 0 0 0 0 0 0 0 0 0 0 0 0 0 0 0 0 0 0 0 0 0 0 0 0 0 0
0 0 0 0 0 0 0 0 0 0 0 -0 -0 -0 0 0 0 0 0 0 0 0 0 0 0 0 0 0 0 0 0 0 0 0 0 0 0 0 0 0 0 0 0 0 0
0 0 0 0 0 0 0 0 0 0 0 -0 -0 -0 0 0 0 0 0 0 0 0 0 0 0 0 0 0 0 0 0 0 0 0 0 0 0 0 0 0 0 0 0 0 0
0 0 0 0 0 0 0 0 0 0 0 0 0 0 0 0 0 0 0 0 0 0 0 0 0 0 0 0 0 0 0 0 0 0 0 0 0 -0 0 0 0 0 0 0 0
0 0 0 0 0 0 0 0 0 0 0 0 0 0 0 0 0 0 0 0 0 0 0 0 0 0 0 0 0 0 0 0 0 0 0 0 0 0 0 0 0 0 0 0 0
0 0 0 0 0 0 0 0 0 0 0 0 0 0 0 0 0 0 0 0 0 0 0 0 0 0 0 0 0 0 0 0 0 0 0 0 0 0 0 0 -0 -0 0 0 0
0 0 0 0 0 0 0 0 0 0 0 0 -0 0 0 0 0 0 0 0 0 0 0 0 0 0 0 0 0 0 0 0 0 0 0 0 0 0 0 0 0 0 0 0 0
0 0 0 0 0 0 0 0 0 0 0 0 -0 0 0 0 0 0 0 0 0 0 0 0 0 0 0 0 0 0 0 0 0 0 0 0 0 0 0 0 0 0 0 0 0
0 0 0 0 1 0 0 0 0 0 0 0 0 0 0 0 0 0 0 0 0 0 0 0 0 0 0 0 0 0 0 0 0 0 0 0 0 0 0 0 0 0 0 0 0
0 0 0 0 0 0 0 0 0 0 0 -0 -0 -0 0 0 0 0 0 0 0 0 0 0 0 0 0 0 0 0 0 0 0 0 0 0 0 0 0 0 0 0 0 0 0
0 0 0 0 0 0 0 0 0 0 -0 -0 0 -0 -0 0 0 0 0 0 0 0 0 0 0 0 0 0 0 0 0 0 0 0 0 0 0 0 0 0 0 0 0 0 0
0 0 0 0 0 0 0 0 0 0 -0 -0 -0 0 -0 0 0 0 0 0 0 0 0 0 0 0 0 0 0 0 0 0 0 0 0 0 0 0 0 0 0 0 0 0 0
0 0 0 0 0 0 0 0 0 0 -0 -0 -0 -0 -0 0 0 0 0 0 0 0 0 0 0 0 0 0 0 0 0 0 0 0 0 0 0 0 0 0 0 0 0 0 0
0 0 0 0 0 0 0 0 0 -0 -0 -0 -0 -0 0 0 0 0 0 0 0 0 0 0 0 0 0 0 0 0 0 0 0 0 0 0 0 0 0 0 0 0 -0 -0 -0
0 0 0 0 0 0 0 0 0 -0 -0 -0 -0 -0 0 0 0 0 0 0 0 0 0 0 0 0 0 0 0 0 0 0 0 0 0 0 0 0 0 0 0 0 0 0 0
Wind_Speed_500mb
48 50 52 50 50 46 43 42 45 48 49 46 41 40 48 43 44 58 59 55 60 52 32 41 42 28 21 19 25 16 19 25 30 24 24 19 26 14 14 14 18 16 1 9 51
51 51 53 54 50 49 45 42 43 43 50 42 38 40 47 45 46 67 54 59 57 54 50 38 42 37 25 27 16 25 23 35 18 22 21 25 36 30 19 23 18 17 11 30 45
54 54 54 52 49 47 47 43 42 43 47 45 38 40 44 38 37 50 68 61 63 54 46 40 47 36 31 33 27 23 29 32 16 16 9 22 34 31 27 25 30 34 32 37 52
56 56 56 51 47 47 49 45 42 42 41 51 40 41 37 39 18 33 49 72 60 57 51 36 40 20 12 17 33 22 39 22 16 17 10 24 24 25 39 15 26 26 40 38 60
58 58 58 51 48 47 49 47 42 41 40 53 45 42 39 53 42 10 50 74 65 64 64 60 48 29 18 9 21 22 17 21 13 18 14 11 31 29 39 22 12 26 40 44 54
60 57 58 52 49 45 44 47 42 40 37 49 53 41 50 46 54 46 30 63 59 55 54 63 46 49 13 16 7 13 18 22 19 20 14 13 17 21 34 33 21 36 40 42 51
66 59 58 52 50 43 41 41 39 41 37 48 64 41 63 66 30 49 62 56 52 57 49 56 52 55 32 7 15 10 20 15 22 24 12 15 12 24 19 35 33 37 38 41 46
76 68 63 55 50 49 38 34 34 35 29 40 62 53 56 65 56 51 63 50 73 60 52 50 57 55 18 20 10 5 8 24 31 29 15 24 32 32 36 36 42 40 39 40 44
77 71 70 63 55 49 46 38 34 33 38 34 48 58 51 50 79 64 64 66 62 63 53 33 61 38 9 17 12 7 13 29 29 36 14 24 22 41 38 40 41 43 43 43 42
82 75 73 65 55 51 44 37 31 31 34 28 46 19 42 51 62 69 62 58 50 58 32 16 15 10 9 18 36 15 23 13 36 23 27 28 30 10 26 37 46 47 46 47 46
86 78 75 68 59 58 48 24 12 15 33 30 20 54 25 53 76 64 67 62 48 33 19 15 9 32 38 27 32 40 33 32 30 18 27 38 35 36 28 36 41 48 51 51 50
85 81 73 63 54 49 42 39 32 8 15 44 67 53 49 59 27 64 75 35 16 13 6 6 33 37 27 19 33 40 40 38 7 10 19 29 42 38 40 38 47 51 51 51 47
86 84 73 59 47 45 43 44 27 29 13 18 45 75 52 61 48 64 81 51 18 23 23 22 7 22 20 16 31 44 45 36 15 8 19 10 33 38 42 50 45 48 52 52 49
88 84 72 54 44 44 46 37 24 11 8 12 16 27 60 59 20 79 61 45 7 20 14 14 3 21 15 21 33 41 41 30 25 28 14 26 14 36 45 40 42 52 47 49 54
89 83 74 66 33 53 41 35 23 18 12 10 17 19 65 41 52 30 52 28 37 24 16 9 13 14 25 25 39 14 24 32 26 21 8 18 13 30 29 45 39 52 65 64 56
92 85 77 64 37 48 44 50 35 9 20 8 6 21 38 21 39 41 18 33 41 19 13 3 8 8 24 21 26 22 36 25 11 10 17 32 29 19 22 32 37 46 60 70 69
94 88 81 76 46 52 56 52 11 20 4 4 4 18 47 16 21 18 25 29 21 16 13 6 4 4 6 12 8 27 39 9 8 13 16 1 26 24 7 9 23 27 51 61 62
95 87 78 71 55 68 66 9 24 20 31 11 5 22 31 31 25 28 41 26 21 18 24 16 10 21 19 17 16 43 29 16 18 16 18 3 17 12 24 31 38 26 13 18 43
98 86 79 67 72 69 50 23 18 14 16 8 1 13 24 23 19 27 36 46 31 33 20 17 6 24 20 15 22 35 24 8 14 5 4 14 12 17 23 22 22 26 25 27 29
102 81 73 65 70 74 24 34 16 16 15 8 5 14 19 40 25 23 47 44 35 41 24 18 10 4 6 4 31 28 24 14 8 15 10 13 10 14 8 21 15 12 15 8 17
78 39 68 72 71 54 23 22 30 34 33 15 8 8 11 24 31 32 54 45 40 46 31 31 12 5 7 16 28 24 26 13 14 5 7 9 7 3 12 5 2 5 8 4 9
43 11 80 84 17 12 23 27 25 19 28 11 6 11 13 35 42 47 55 44 64 52 50 30 15 14 23 11 17 27 19 32 10 10 1 3 2 5 10 5 2 4 2 4 6
51 23 79 85 18 19 16 33 21 24 32 19 10 14 12 27 30 45 40 18 65 50 49 24 19 14 13 6 9 20 32 30 7 4 12 8 6 9 4 2 7 10 15 18 8
32 11 28 54 33 30 36 25 31 30 14 8 8 2 17 33 36 48 38 25 58 57 28 11 10 19 26 26 26 31 48 32 31 9 11 19 17 15 16 14 13 13 13 12 11
17 9 21 26 29 37 43 28 33 24 36 38 11 21 18 15 36 37 36 19 37 53 11 9 8 6 8 1 39 36 46 36 40 39 26 27 33 24 26 21 19 9 4 12 23
19 15 26 24 52 33 36 31 37 43 22 27 32 36 32 36 28 49 47 29 48 20 20 13 11 6 8 8 18 38 36 38 48 46 52 25 27 17 31 25 18 19 33 24 15
33 31 36 19 33 29 31 42 45 40 35 42 35 13 26 50 42 36 47 37 46 62 46 34 18 16 10 3 18 6 51 60 58 53 57 45 31 12 9 8 21 26 25 23 21
Wind_Direction_500mb
230 228 224 232 238 236 237 239 241 243 242 245 251 248 235 232 235 219 216 222 215 221 236 233 236 232 258 244 219 214 235 234 230 216 233 161 185 197 182 156 182 187 65 111 184
233 230 230 229 234 237 238 239 243 247 238 239 244 249 238 235 244 231 217 215 214 217 226 221 223 214 265 235 213 211 225 230 244 220 233 187 197 173 175 174 195 182 176 156 185
236 233 233 233 236 238 239 240 244 246 241 235 230 242 238 240 227 239 217 218 216 210 217 219 215 180 259 247 214 217 233 230 209 222 225 188 200 182 198 201 205 196 172 183 179
236 235 234 233 233 231 240 241 245 249 250 230 230 230 227 235 224 225 218 218 211 201 205 194 188 157 243 234 214 228 228 248 208 183 180 184 190 203 209 200 213 202 192 188 183
235 235 235 234 234 236 240 239 246 248 251 230 231 226 214 216 228 236 209 208 208 208 206 199 179 186 218 231 240 226 196 210 200 176 188 204 203 205 211 203 170 181 191 192 190
233 234 234 233 234 236 239 239 245 248 244 230 227 222 218 233 236 232 226 196 197 193 196 204 204 192 194 239 245 334 236 196 188 184 172 200 209 197 224 202 177 176 186 190 191
232 232 234 230 232 233 236 236 241 248 249 239 223 214 219 232 238 224 223 203 192 198 196 205 203 187 188 148 199 264 229 197 197 189 182 182 204 222 205 182 192 190 192 194 198
230 231 234 230 230 228 230 234 238 244 243 251 229 218 242 231 225 213 205 193 202 188 202 210 202 203 181 161 130 194 294 207 192 180 192 185 232 219 207 189 201 202 200 200 201
227 226 229 228 228 228 230 235 242 253 242 246 238 233 263 211 209 206 203 198 191 193 196 183 195 206 154 187 136 237 195 215 184 192 157 200 220 235 187 200 206 204 204 206 207
226 222 225 223 224 225 226 230 238 245 240 245 246 226 242 192 183 196 194 195 175 186 183 214 143 173 129 202 204 156 197 221 216 194 208 201 230 168 190 205 212 206 205 210 210
222 219 221 224 226 225 224 217 225 238 227 222 192 221 260 202 195 183 181 167 148 164 181 183 208 206 185 235 222 203 202 207 220 186 201 219 225 233 201 213 222 215 211 211 214
218 216 215 219 221 216 208 209 224 229 237 235 236 245 238 175 167 175 172 168 141 132 133 130 224 207 189 214 243 196 186 203 325 144 219 223 236 232 226 212 216 218 215 216 213
213 212 211 211 209 203 202 211 227 235 274 260 229 235 233 199 177 171 174 176 163 132 196 203 228 200 195 181 256 198 184 190 179 177 237 288 254 241 235 226 223 225 223 221 213
208 209 204 195 189 194 199 198 204 171 269 239 213 240 221 193 194 168 174 146 102 146 170 240 130 198 174 202 229 198 183 167 148 164 215 193 256 216 218 220 218 218 219 219 216
202 203 196 190 182 184 193 185 166 141 254 179 188 180 187 178 133 182 159 141 149 141 142 187 195 198 190 201 223 236 165 159 162 204 259 201 243 252 227 215 210 215 216 217 215
199 197 188 177 163 173 166 167 139 160 233 215 134 183 202 168 167 153 137 106 118 103 62 95 93 206 208 210 252 182 120 115 134 186 241 222 212 236 202 220 218 213 218 217 214
195 193 187 177 162 169 154 143 145 219 87 192 248 247 200 172 130 170 147 141 139 136 152 123 136 209 212 190 320 236 148 128 171 205 232 47 209 251 228 222 242 230 222 221 219
190 188 184 174 166 161 150 132 213 176 216 140 207 237 192 154 173 180 151 155 162 117 137 154 195 180 186 207 184 222 187 160 179 199 197 82 228 236 241 239 242 231 226 222 223
182 179 173 172 173 161 164 195 214 187 211 253 328 250 203 197 151 158 185 169 177 158 130 160 175 149 185 215 244 222 227 107 92 44 168 196 246 274 249 232 238 236 233 240 228
165 163 168 170 174 178 188 216 223 171 141 115 228 231 216 178 166 168 177 182 176 180 149 141 106 137 118 86 284 263 218 170 182 155 206 184 252 238 220 228 165 195 220 241 218
151 143 169 162 160 172 202 213 219 241 220 175 215 275 275 192 182 182 185 172 174 172 181 148 123 91 140 202 193 213 213 224 180 178 210 171 216 120 184 162 203 79 129 190 188
141 137 169 170 167 191 207 201 206 204 202 175 179 245 281 211 184 183 192 178 173 161 170 168 133 154 196 133 214 278 231 220 201 172 84 15 231 162 119 83 11 354 64 194 241
134 108 167 169 185 189 196 217 228 199 200 176 186 203 244 235 200 199 194 165 172 168 169 170 156 117 141 308 265 225 224 224 204 91 189 162 193 144 171 150 114 110 115 85 55
132 137 151 189 207 188 195 219 222 212 207 171 163 239 292 257 221 194 167 160 169 176 160 116 154 175 184 201 147 196 209 218 217 205 147 217 191 187 206 193 165 147 110 72 40
135 125 169 181 202 192 190 202 211 216 213 205 201 203 230 259 207 178 157 138 170 177 109 107 123 102 26 231 180 190 192 195 206 218 216 218 219 186 191 197 183 186 289 305 310
127 136 168 171 190 200 191 212 211 210 184 210 227 221 250 273 200 165 160 162 173 162 157 177 166 117 30 352 155 184 192 198 224 220 235 236 205 223 260 230 226 257 278 274 263
164 144 156 148 187 190 208 216 217 215 218 233 215 208 245 265 224 190 165 159 170 169 174 173 145 164 176 242 109 122 196 203 217 218 222 218 225 176 207 205 222 243 264 278 289
Wind_Speed_850mb
48 50 52 50 50 46 43 42 45 48 49 46 41 40 48 43 44 58 59 55 60 52 32 41 42 28 21 19 25 16 19 25 30 24 24 19 26 14 14 14 18 16 1 9 51
51 51 53 54 50 49 45 42 43 43 50 42 38 40 47 45 46 67 54 59 57 54 50 38 42 37 25 27 16 25 23 35 18 22 21 25 36 30 19 23 18 17 11 30 45
54 54 54 52 49 47 47 43 42 43 47 45 38 40 44 38 37 50 68 61 63 54 46 40 47 36 31 33 27 23 29 32 16 16 9 22 34 31 27 25 30 34 32 37 52
56 56 56 51 47 47 49 45 42 42 41 51 40 41 37 39 18 33 49 72 60 57 51 36 40 20 12 17 33 22 39 22 16 17 10 24 24 25 39 15 26 26 40 38 60
58 58 58 51 48 47 49 47 42 41 40 53 45 42 39 53 42 10 50 74 65 64 64 60 48 29 18 9 21 22 17 21 13 18 14 11 31 29 39 22 12 26 40 44 54
60 57 58 52 49 45 44 47 42 40 37 49 53 41 50 46 54 46 30 63 59 55 54 63 46 49 13 16 7 13 18 22 19 20 14 13 17 21 34 33 21 36 40 42 51
66 59 58 52 50 43 41 41 39 41 37 48 64 41 63 66 30 49 62 56 52 57 49 56 52 55 32 7 15 10 20 15 22 24 12 15 12 24 19 35 33 37 38 41 46
76 68 63 55 50 49 38 34 34 35 29 40 62 53 56 65 56 51 63 50 73 60 52 50 57 55 18 20 10 5 8 24 31 29 15 24 32 32 36 36 42 40 39 40 44
77 71 70 63 55 49 46 38 34 33 38 34 48 58 51 50 79 64 64 66 62 63 53 33 61 38 9 17 12 7 13 29 29 36 14 24 22 41 38 40 41 43 43 43 42
82 75 73 65 55 51 44 37 31 31 34 28 46 19 42 51 62 69 62 58 50 58 32 16 15 10 9 18 36 15 23 13 36 23 27 28 30 10 26 37 46 47 46 47 46
86 78 75 68 59 58 48 24 12 15 33 30 20 54 25 53 76 64 67 62 48 33 19 15 9 32 38 27 32 40 33 32 30 18 27 38 35 36 28 36 41 48 51 51 50
85 81 73 63 54 49 42 39 32 8 15 44 67 53 49 59 27 64 75 35 16 13 6 6 33 37 27 19 33 40 40 38 7 10 19 29 42 38 40 38 47 51 51 51 47
86 84 73 59 47 45 43 44 27 29 13 18 45 75 52 61 48 64 81 51 18 23 23 22 7 22 20 16 31 44 45 36 15 8 19 10 33 38 42 50 45 48 52 52 49
88 84 72 54 44 44 46 37 24 11 8 12 16 27 60 59 20 79 61 45 7 20 14 14 3 21 15 21 33 41 41 30 25 28 14 26 14 36 45 40 42 52 47 49 54
89 83 74 66 33 53 41 35 23 18 12 10 17 19 65 41 52 30 52 28 37 24 16 9 13 14 25 25 39 14 24 32 26 21 8 18 13 30 29 45 39 52 65 64 56
92 85 77 64 37 48 44 50 35 9 20 8 6 21 38 21 39 41 18 33 41 19 13 3 8 8 24 21 26 22 36 25 11 10 17 32 29 19 22 32 37 46 60 70 69
94 88 81 76 46 52 56 52 11 20 4 4 4 18 47 16 21 18 25 29 21 16 13 6 4 4 6 12 8 27 39 9 8 13 16 1 26 24 7 9 23 27 51 61 62
95 87 78 71 55 68 66 9 24 20 31 11 5 22 31 31 25 28 41 26 21 18 24 16 10 21 19 17 16 43 29 16 18 16 18 3 17 12 24 31 38 26 13 18 43
98 86 79 67 72 69 50 23 18 14 16 8 1 13 24 23 19 27 36 46 31 33 20 17 6 24 20 15 22 35 24 8 14 5 4 14 12 17 23 22 22 26 25 27 29
102 81 73 65 70 74 24 34 16 16 15 8 5 14 19 40 25 23 47 44 35 41 24 18 10 4 6 4 31 28 24 14 8 15 10 13 10 14 8 21 15 12 15 8 17
78 39 68 72 71 54 23 22 30 34 33 15 8 8 11 24 31 32 54 45 40 46 31 31 12 5 7 16 28 24 26 13 14 5 7 9 7 3 12 5 2 5 8 4 9
43 11 80 84 17 12 23 27 25 19 28 11 6 11 13 35 42 47 55 44 64 52 50 30 15 14 23 11 17 27 19 32 10 10 1 3 2 5 10 5 2 4 2 4 6
51 23 79 85 18 19 16 33 21 24 32 19 10 14 12 27 30 45 40 18 65 50 49 24 19 14 13 6 9 20 32 30 7 4 12 8 6 9 4 2 7 10 15 18 8
32 11 28 54 33 30 36 25 31 30 14 8 8 2 17 33 36 48 38 25 58 57 28 11 10 19 26 26 26 31 48 32 31 9 11 19 17 15 16 14 13 13 13 12 11
17 9 21 26 29 37 43 28 33 24 36 38 11 21 18 15 36 37 36 19 37 53 11 9 8 6 8 1 39 36 46 36 40 39 26 27 33 24 26 21 19 9 4 12 23
19 15 26 24 52 33 36 31 37 43 22 27 32 36 32 36 28 49 47 29 48 20 20 13 11 6 8 8 18 38 36 38 48 46 52 25 27 17 31 25 18 19 33 24 15
33 31 36 19 33 29 31 42 45 40 35 42 35 13 26 50 42 36 47 37 46 62 46 34 18 16 10 3 18 6 51 60 58 53 57 45 31 12 9 8 21 26 25 23 21
Wind_Direction_850mb
230 228 224 232 238 236 237 239 241 243 242 245 251 248 235 232 235 219 216 222 215 221 236 233 236 232 258 244 219 214 235 234 230 216 233 161 185 197 182 156 182 187 65 111 184
233 230 230 229 234 237 238 239 243 247 238 239 244 249 238 235 244 231 217 215 214 217 226 221 223 214 265 235 213 211 225 230 244 220 233 187 197 173 175 174 195 182 176 156 185
236 233 233 233 236 238 239 240 244 246 241 235 230 242 238 240 227 239 217 218 216 210 217 219 215 180 259 247 214 217 233 230 209 222 225 188 200 182 198 201 205 196 172 183 179
236 235 234 233 233 231 240 241 245 249 250 230 230 230 227 235 224 225 218 218 211 201 205 194 188 157 243 234 214 228 228 248 208 183 180 184 190 203 209 200 213 202 192 188 183
235 235 235 234 234 236 240 239 246 248 251 230 231 226 214 216 228 236 209 208 208 208 206 199 179 186 218 231 240 226 196 210 200 176 188 204 203 205 211 203 170 181 191 192 190
233 234 234 233 234 236 239 239 245 248 244 230 227 222 218 233 236 232 226 196 197 193 196 204 204 192 194 239 245 334 236 196 188 184 172 200 209 197 224 202 177 176 186 190 191
232 232 234 230 232 233 236 236 241 248 249 239 223 214 219 232 238 224 223 203 192 198 196 205 203 187 188 148 199 264 229 197 197 189 182 182 204 222 205 182 192 190 192 194 198
230 231 234 230 230 228 230 234 238 244 243 251 229 218 242 231 225 213 205 193 202 188 202 210 202 203 181 161 130 194 294 207 192 180 192 185 232 219 207 189 201 202 200 200 201
227 226 229 228 228 228 230 235 242 253 242 246 238 233 263 211 209 206 203 198 191 193 196 183 195 206 154 187 136 237 195 215 184 192 157 200 220 235 187 200 206 204 204 206 207
226 222 225 223 224 225 226 230 238 245 240 245 246 226 242 192 183 196 194 195 175 186 183 214 143 173 129 202 204 156 197 221 216 194 208 201 230 168 190 205 212 206 205 210 210
222 219 221 224 226 225 224 217 225 238 227 222 192 221 260 202 195 183 181 167 148 164 181 183 208 206 185 235 222 203 202 207 220 186 201 219 225 233 201 213 222 215 211 211 214
218 216 215 219 221 216 208 209 224 229 237 235 236 245 238 175 167 175 172 168 141 132 133 130 224 207 189 214 243 196 186 203 325 144 219 223 236 232 226 212 216 218 215 216 213
213 212 211 211 209 203 202 211 227 235 274 260 229 235 233 199 177 171 174 176 163 132 196 203 228 200 195 181 256 198 184 190 179 177 237 288 254 241 235 226 223 225 223 221 213
208 209 204 195 189 194 199 198 204 171 269 239 213 240 221 193 194 168 174 146 102 146 170 240 130 198 174 202 229 198 183 167 148 164 215 193 256 216 218 220 218 218 219 219 216
202 203 196 190 182 184 193 185 166 141 254 179 188 180 187 178 133 182 159 141 149 141 142 187 195 198 190 201 223 236 165 159 162 204 259 201 243 252 227 215 210 215 216 217 215
199 197 188 177 163 173 166 167 139 160 233 215 134 183 202 168 167 153 137 106 118 103 62 95 93 206 208 210 252 182 120 115 134 186 241 222 212 236 202 220 218 213 218 217 214
195 193 187 177 162 169 154 143 145 219 87 192 248 247 200 172 130 170 147 141 139 136 152 123 136 209 212 190 320 236 148 128 171 205 232 47 209 251 228 222 242 230 222 221 219
190 188 184 174 166 161 150 132 213 176 216 140 207 237 192 154 173 180 151 155 162 117 137 154 195 180 186 207 184 222 187 160 179 199 197 82 228 236 241 239 242 231 226 222 223
182 179 173 172 173 161 164 195 214 187 211 253 328 250 203 197 151 158 185 169 177 158 130 160 175 149 185 215 244 222 227 107 92 44 168 196 246 274 249 232 238 236 233 240 228
165 163 168 170 174 178 188 216 223 171 141 115 228 231 216 178 166 168 177 182 176 180 149 141 106 137 118 86 284 263 218 170 182 155 206 184 252 238 220 228 165 195 220 241 218
151 143 169 162 160 172 202 213 219 241 220 175 215 275 275 192 182 182 185 172 174 172 181 148 123 91 140 202 193 213 213 224 180 178 210 171 216 120 184 162 203 79 129 190 188
141 137 169 170 167 191 207 201 206 204 202 175 179 245 281 211 184 183 192 178 173 161 170 168 133 154 196 133 214 278 231 220 201 172 84 15 231 162 119 83 11 354 64 194 241
134 108 167 169 185 189 196 217 228 199 200 176 186 203 244 235 200 199 194 165 172 168 169 170 156 117 141 308 265 225 224 224 204 91 189 162 193 144 171 150 114 110 115 85 55
132 137 151 189 207 188 195 219 222 212 207 171 163 239 292 257 221 194 167 160 169 176 160 116 154 175 184 201 147 196 209 218 217 205 147 217 191 187 206 193 165 147 110 72 40
135 125 169 181 202 192 190 202 211 216 213 205 201 203 230 259 207 178 157 138 170 177 109 107 123 102 26 231 180 190 192 195 206 218 216 218 219 186 191 197 183 186 289 305 310
127 136 168 171 190 200 191 212 211 210 184 210 227 221 250 273 200 165 160 162 173 162 157 177 166 117 30 352 155 184 192 198 224 220 235 236 205 223 260 230 226 257 278 274 263
164 144 156 148 187 190 208 216 217 215 218 233 215 208 245 265 224 190 165 159 170 169 174 173 145 164 176 242 109 122 196 203 217 218 222 218 225 176 207 205 222 243 264 278 289